AAL1996 KMIA-KMIA

Flight info

Callsign AAL1996
Flight time 0h 9m
Altitude 36000
Route GLADZ4 BAGGS REMIS Y280 REDFN HRV
Aircraft A321/M-SDE3FGHIRWY/LB1

Departure

Time 2026-05-04 03:39
Airport Miami International Airport (KMIA)

Arrival

Time 2026-05-04 03:48
Airport Miami International Airport (KMIA)
Time Latitude Longitude Altitude Speed Heading
2026-05-04 03:39 25.93659 -80.16621 3994 ft 289 kts 270°
2026-05-04 03:39 25.93511 -80.18820 4133 ft 284 kts 262°
2026-05-04 03:39 25.93246 -80.20953 4277 ft 271 kts 262°
2026-05-04 03:39 25.92994 -80.22983 4107 ft 262 kts 262°
2026-05-04 03:40 25.92744 -80.24960 3926 ft 253 kts 262°
2026-05-04 03:40 25.92510 -80.26857 4000 ft 246 kts 262°
2026-05-04 03:40 25.92303 -80.28775 4163 ft 254 kts 264°
2026-05-04 03:40 25.92150 -80.30750 4215 ft 259 kts 263°
2026-05-04 03:41 25.91941 -80.32753 4108 ft 263 kts 263°
2026-05-04 03:41 25.91757 -80.34777 4021 ft 265 kts 263°
2026-05-04 03:41 25.91514 -80.36809 3959 ft 265 kts 261°
2026-05-04 03:41 25.91258 -80.38828 3913 ft 264 kts 263°
2026-05-04 03:42 25.91052 -80.40860 3830 ft 265 kts 261°
2026-05-04 03:42 25.90637 -80.42863 3673 ft 268 kts 252°
2026-05-04 03:42 25.89726 -80.44662 3472 ft 269 kts 234°
2026-05-04 03:42 25.88599 -80.46299 3418 ft 264 kts 232°
2026-05-04 03:43 25.87482 -80.47853 3378 ft 255 kts 231°
2026-05-04 03:43 25.86377 -80.49314 3347 ft 240 kts 229°
2026-05-04 03:43 25.85260 -80.50602 3354 ft 221 kts 220°
2026-05-04 03:43 25.83992 -80.51363 3458 ft 195 kts 195°
2026-05-04 03:44 25.82664 -80.51317 3350 ft 196 kts 167°
2026-05-04 03:44 25.81450 -80.50669 3163 ft 189 kts 149°
2026-05-04 03:44 25.80505 -80.49810 3235 ft 159 kts 137°
2026-05-04 03:44 25.79875 -80.48846 3008 ft 157 kts 114°
2026-05-04 03:45 25.79672 -80.47649 2728 ft 161 kts 96°
2026-05-04 03:45 25.79608 -80.46405 2471 ft 161 kts 95°
2026-05-04 03:45 25.79557 -80.45162 2260 ft 160 kts 94°
2026-05-04 03:45 25.79532 -80.43962 2072 ft 153 kts 94°
2026-05-04 03:46 25.79529 -80.42776 1822 ft 153 kts 91°
2026-05-04 03:46 25.79541 -80.41581 1749 ft 158 kts 91°
2026-05-04 03:46 25.79549 -80.40337 1615 ft 163 kts 89°
2026-05-04 03:46 25.79620 -80.39094 1567 ft 161 kts 86°
2026-05-04 03:47 25.79673 -80.37823 1354 ft 170 kts 89°
2026-05-04 03:47 25.79754 -80.36509 1195 ft 173 kts 86°
2026-05-04 03:47 25.79836 -80.35163 990 ft 174 kts 86°
2026-05-04 03:47 25.79907 -80.33833 752 ft 171 kts 86°
2026-05-04 03:48 25.79956 -80.32538 535 ft 164 kts 86°
2026-05-04 03:48 25.80020 -80.31318 297 ft 154 kts 85°
2026-05-04 03:48 25.80068 -80.30166 92 ft 145 kts 85°
2026-05-04 03:48 25.80114 -80.29164 27 ft 0 kts 84°